Location: Table Mountain
(47.2500°N, 120.5778°W)
Time: 21:03:09
(UTC-07:00)

ISS - Pass Details

Date: 07 October 2017
Orbit: 401 x 408 km, 51.6° (Epoch: 18 October)

Event Time Altitude Azimuth Distance (km) Brightness Sun altitude
Rises 20:46:48 0° 294° (WNW) 2,324 1.4 -23.9°
Reaches altitude 10° 20:48:53 10° 296° (WNW) 1,463 0.1 -24.3°
Enters shadow 20:50:51 33° 301° (WNW) 701 -2.1 -24.6°
